Regional Weather Roundup
Issued by NWS Charleston, SC

Current Version | Previous Version | Text Only | Print | Product List | Glossary Off
Versions: 1 2 3 4 5 6 7 8 9 10 11 12 13 14 15 16 17 18 19 20 21 22 23 24 25 26 27 28 29 30 31 32 33 34 35 36 37 38 39 40 41 42 43 44 45 46 47 48 49 50
796 ASUS42 KCHS 290113 RWRCHS REGIONAL WEATHER ROUNDUP NATIONAL WEATHER SERVICE CHARLESTON SC 900 PM EDT SAT MAY 28 2016 NOTE: "FAIR" INDICATES FEW OR NO CLOUDS BELOW 12,000 FEET WITH NO SIGNIFICANT WEATHER AND/OR OBSTRUCTIONS TO VISIBILITY. NOT ALL STATIONS ARE QUALITY CONTROLLED. USE DATA WITH CAUTION... ESPECIALLY DEWPOINT OBSERVATIONS. SCZ027-030-031-034>040-042>050-290200- ...SOUTHEAST SOUTH CAROLINA... CITY SKY/WX TMP DP RH WIND PRES REMARKS N CHARLESTON LGT RAIN 69 67 93 N15 30.04F FOG WATERFRONT PRK N/A 69 69 100 N15 30.02F MOUNT PLEASANT HVY RAIN 68 66 94 N9 30.04F JOHNS ISLAND DRIZZLE 70 70 100 N14G23 30.03F PINOPOLIS NOT AVBL MONCKS CORNER HVY RAIN 64 63 94 N7 30.08S SUMMERVILLE HVY RAIN 70 70 100 N8 30.09F BEAUFORT MCAS RAIN 70 68 93 NE17G23 30.04F FOG BEAUFORT ARPT RAIN 70 68 94 NE20G29 30.04F HILTON HEAD IS RAIN 70 70 100 N18G28 30.03F WALTERBORO HVY RAIN 70 70 100 N6 30.08F ALLENDALE RAIN 68 66 94 VRB6G15 30.08F ...SOUTHERN MIDLANDS AND PEE DEE... CITY SKY/WX TMP DP RH WIND PRES REMARKS GEORGETOWN NOT AVBL KINGSTREE CLOUDY 70 68 94 CALM 30.09F ORANGEBURG LGT RAIN 69 64 84 E6 30.12R BARNWELL LGT RAIN 70 70 100 E6 30.12S AIKEN FAIR 70 66 88 E5 30.16R MANNING DRIZZLE 68 68 100 W3 30.10S COLUMBIA LGT RAIN 72 67 84 E3 30.11S SUMTER CLOUDY 72 68 88 SE5 30.10R FLORENCE CLOUDY 73 69 87 N5 30.10F MYRTLE BEACH NOT AVBL N MYRTLE BEACH CLOUDY 73 70 90 N6 30.07S $$ GAZ063-065-086>088-099>101-113>116-118-119-134>141-150-290200- ...SOUTHEAST GEORGIA... CITY SKY/WX TMP DP RH WIND PRES REMARKS SAVANNAH ARPT CLOUDY 71 65 81 N12 30.05F HUNTER AAF CLOUDY 71 68 90 VRB6 30.01F FORT STEWART CLOUDY 72 66 83 N6 30.03F STATESBORO MOCLDY 71 65 82 NE6 30.07F SYLVANIA CLOUDY 71 65 82 NE8 30.10F CLAXTON FAIR 73 65 76 N5 30.07F ...CSRA...CENTRAL AND FAR SOUTHEAST GEORGIA... CITY SKY/WX TMP DP RH WIND PRES REMARKS THOMSON CLOUDY 77 70 80 CALM 30.14R AUGUSTA-BUSH CLOUDY 70 66 87 SE6 30.10R AUGUSTA-DANIEL CLOUDY 75 67 76 SE8 30.12R SWAINSBORO FAIR 72 66 83 E8 30.08S VIDALIA MOCLDY 75 68 78 E9 30.07R EASTMAN FAIR 80 66 63 NE6 30.09R HAZLEHURST FAIR 80 65 61 NE6 30.05S ALMA MOCLDY 77 65 66 CALM 30.05R WAYCROSS CLOUDY 77 69 77 E8 30.04R JESUP FAIR 68 63 83 NE7 30.06R BAXLEY FAIR 79 68 69 E10 30.04S BRUNSWICK CLOUDY 77 70 78 N3 30.04F SAINT SIMONS CLOUDY 73 68 84 N12G20 30.03R $$ SCZ027-028-034-036>038-045-046-048>050-GAZ119-141-290200- ...LAKE AND SUPPLEMENTAL COASTAL OBSERVATIONS... STATION/POSITION TIME TEMP WIND PRES WAVE SWELL AIR SEA DIR/SP/G HT/PER HT/PER/DIR (UTC) (F) (DEG/KT/KT) (MB) (FT/S) (FT/S/D) WINYAH BAY NOT AVBL LAKE MURRAY 0000 73 100/ 5/ 9 1019.3R ACE BASIN NERRS NOT AVBL FORT PULASKI 0000 20/ 9/ 18 N/A SAPELO ISLAND 0000 73 10/ 13 1017.0S $$ ANZ835-935-AMZ111-154-330-350-352-354-370-450-454-472-290200- ...C-MAN AND BUOY OBSERVATIONS... STATION/POSITION TIME TEMP WIND PRES WAVE SWELL AIR SEA DIR/SP/G HT/PER HT/PER/DIR (UTC) (F) (DEG/KT/KT) (MB) (FT/S) (FT/S/D) BUOY 41004 0050 78 78 90/ 16/ 17 1015.0S 8/ 8 5/ 8 BUOY 41008 0050 73 76 360/ 19/ 25 1015.6F 8/ 9 3/100/ 9 FOLLY BEACH CMAN 0100 70 360/ 16/ 20 1016.6F CAPERS NEARSHORE 0008 72 76 20/ 21/ 31 1017.0R FRIPP NEARSHORE 0008 72 76 30/ 23/ 31 1016.6R STATION/POSITION TIME TEMP WIND PRES WAVE SWELL AIR SEA DIR/SP/G HT/PER HT/PER/DIR (UTC) (F) (DEG/KT/KT) (MB) (FT/S) (FT/S/D) 5E ST. MARYS GA 0001 78 N/A 6/ 6 2/ 90/11 FRYING PAN BUOY 0000 76 76 80/ 17/ 23 1017.6R BUOY 41025 0050 78 78 120/ 12/ 16 1020.0F 4/ 8 3/130/ 8 CAPE LOOKOUT NC 0100 75 70/ 9/ 10 1019.4F BUOY 41002 0050 76 75 120/ 16/ 17 1018.1S 4/ 5 2/130/13 BUOY 41010 0020 79 79 240/ 4/ 6 1016.2R ST AUGUSTINE FL 0100 76 80 360/ 17/ 18 1017.2S $$

USA.gov is the U.S. government's official web portal to all federal, state and local government web resources and services.